sat.trackr.live / text

‹ back to catalog

2026-052J

NORAD 68206 · 2026-052J

PAYLOAD ACTIVE UNKNOWN

§ Identity

Operator
Country
PRC
Launch date
2026-03-16
Launch site
JSC
Launch vehicle
Mass (kg)
RCS (m²)

External: N2YO · Heavens-Above · Gunter

§ Orbital elements

Epoch: 2026-09-18T10:25:52.762080Z

Period
96.30 min
Inclination
97.3175°
Eccentricity
0.0437197
Mean motion
14.95315951 rev/d
Perigee alt
277.1 km
Apogee alt
885.7 km
Semi-major
6,959.5 km
B*
9.2667e-4
RAAN
322.9822°
Arg perigee
116.0968°
Mean anomaly
248.5926°
Rev number
2,757

§ Raw data

2026-052J1 68206U 26052J   26261.43463845  .00081780  27111-5  92667-3 0  99952 68206  97.3175 322.9822 0437197 116.0968 248.5926 14.95315951 27576

JSON: /api/v1/satellites/68206 · /tle

For live sub-satellite position, see the globe view (requires WebGL).

§ Visibility from observer

Set your observer location to see the next 7 days of passes ≥ 10°. The values pass through the URL so the page stays shareable.

No JS? Fill the form by hand. The geolocation button needs JavaScript.